Weather Roundup
Issued by NWS Chicago, IL

Home | Current Version | Previous Version | Text Only | Print | Product List | Glossary On
Versions: 1 2 3 4 5 6 7 8 9 10 11 12 13 14 15 16 17 18 19 20 21 22 23 24 25 26 27 28 29 30 31 32 33 34 35 36 37 38 39 40 41 42 43 44 45 46 47 48 49 50
000
NZUS59 KLOT 240709
HRRLOT

CHICAGO AREA WEATHER ROUNDUP
NATIONAL WEATHER SERVICE CHICAGO/ROMEOVILLE IL
200 AM CDT SUN SEP 24 2017

NOTE: "FAIR" INDICATES FEW OR NO CLOUDS BELOW 12,000 FEET WITH NO
SIGNIFICANT WEATHER AND/OR OBSTRUCTIONS TO VISIBILITY.

* THESE STATIONS ARE NOT UNDER NWS QUALITY CONTROL. THEY ALSO MAY NOT
  REPORT WEATHER SUCH AS PRECIPITATION OR FOG.

ILZ005-006-012>014-019>023-240800-
NORTHEAST ILLINOIS

CITY           SKY/WX    TMP DP  RH WIND       PRES   REMARKS
OHARE          CLEAR     75  65  70 CALM      30.07R
MIDWAY         CLEAR     79  65  62 SE6       30.07R HX  81
AURORA         CLEAR     72  66  81 SE5       30.07S
LANSING*       CLEAR     69  66  89 CALM      30.08S
JOLIET*        CLEAR     74  67  77 CALM      30.07S
WAUKEGAN       CLEAR     68  68 100 CALM      30.07S FOG
DUPAGE AIRPORT CLEAR     69  66  90 CALM      30.07S FOG
WHEELING       CLEAR     72  69  90 CALM      30.08R
MORRIS*        CLEAR     72  66  81 E3        30.06R
LEWIS AIRPORT* CLEAR     72  64  77 SE3       30.07S
NORTHERLY ISL    N/A     71  67  87 NW1         N/A
$$

WIZ051-052-058>065-066-070>072-240800-
SOUTHEAST WISCONSIN

CITY           SKY/WX    TMP DP  RH WIND       PRES   REMARKS
MILWAUKEE      CLEAR     75  67  76 S6        30.08R
KENOSHA*       CLEAR     73  66  78 S3        30.08S
RACINE*        CLEAR     72  69  90 CALM      30.10R
WAUKESHA       CLEAR     72  63  73 S6        30.10S
WEST BEND        N/A     64  63  94 CALM      30.09S
$$

INZ001>003-010>013-019-020-240800-
NORTHWEST INDIANA

CITY           SKY/WX    TMP DP  RH WIND       PRES   REMARKS
GARY*          CLEAR     67  64  90 SE3       30.08S
MICHIGAN CITY* NOT AVBL
RENSSELAER*    NOT AVBL
VALPARAISO     CLEAR     68  65  90 E5        30.09S
$$

LMZ740>746-240800-
SOUTHERN LAKE MICHIGAN

STATION/POSITION TIME  SKY/WX   TEMP WIND        PRES    VSBY
                                AIR  DIR/SP/G
                 (UTC)          (F)  (DEG/KT/KT) (MB)    (MI)
HARRISON CRIB    0640            76  170/  7/  8   N/A
BURNHAM HARBOR   0700            70                N/A
CALUMET HARBOR   0642            78  150/  2/  3 1017.6R
BURNS HARBOR     0640            79  140/  6/ 12 1018.6S
MICHIGAN CITY    0640            77  120/  7/  8   N/A
$$

ABBREVIATIONS USED IN REMARKS
   TC - TEMPERATURE IN CELSIUS
  WCI - WIND CHILL INDEX
   HX - HEAT INDEX
  VSB - VISIBILITY
$$




USA.gov is the U.S. government's official web portal to all federal, state and local government web resources and services.